Total_Precipitation_Accumulation
0.45 0.28 0.21 0.21 0.20 0.19 0.21 0.26 0.47 0.77 1.09 1.37 1.68 1.68 1.53 1.30 1.15 1.15 1.14 1.07 0.97 0.86 0.76 0.64 0.56 0.52 0.51 0.49 0.44 0.41 0.41 0.40 0.42 0.40 0.40 0.41 0.41 0.39 0.35 0.32 0.29 0.26 0.23 0.20
0.36 0.29 0.28 0.33 0.31 0.32 0.35 0.41 0.56 0.86 1.26 1.47 1.47 1.31 1.27 1.19 1.08 1.17 1.31 1.35 1.28 1.12 0.93 0.80 0.71 0.64 0.60 0.56 0.48 0.41 0.41 0.45 0.47 0.45 0.45 0.45 0.43 0.41 0.38 0.33 0.29 0.23 0.18 0.16
0.48 0.36 0.44 0.73 0.61 0.54 0.55 0.57 0.67 0.92 1.05 1.03 1.10 1.12 1.15 1.14 1.16 1.33 1.45 1.40 1.27 1.15 1.02 0.89 0.82 0.74 0.68 0.63 0.54 0.48 0.47 0.46 0.47 0.45 0.45 0.42 0.38 0.39 0.37 0.32 0.28 0.25 0.19 0.16
0.45 0.52 0.90 0.94 0.60 0.54 0.54 0.50 0.49 0.58 0.61 0.71 0.86 1.00 1.12 1.19 1.32 1.46 1.56 1.57 1.46 1.27 1.13 0.96 0.82 0.73 0.66 0.58 0.52 0.51 0.50 0.49 0.45 0.42 0.41 0.38 0.38 0.39 0.36 0.32 0.28 0.26 0.22 0.18
0.56 0.78 0.97 0.89 0.54 0.48 0.57 0.61 0.46 0.44 0.46 0.54 0.65 0.81 1.15 1.30 1.37 1.47 1.52 1.49 1.39 1.23 1.09 0.97 0.83 0.71 0.62 0.56 0.51 0.49 0.49 0.45 0.38 0.34 0.34 0.33 0.36 0.38 0.35 0.33 0.31 0.27 0.23 0.21
0.66 0.95 1.22 1.07 0.48 0.29 0.49 0.86 0.59 0.40 0.37 0.47 0.66 0.90 1.02 1.07 1.15 1.17 1.11 1.04 1.00 0.94 0.87 0.79 0.68 0.58 0.55 0.54 0.48 0.42 0.37 0.31 0.26 0.25 0.27 0.28 0.30 0.32 0.31 0.31 0.30 0.26 0.24 0.23
0.73 0.97 1.12 0.60 0.30 0.34 0.83 1.09 0.77 0.58 0.52 0.57 0.77 0.83 0.69 0.66 0.79 0.86 0.87 0.86 0.81 0.76 0.74 0.67 0.56 0.47 0.47 0.46 0.40 0.30 0.24 0.21 0.20 0.20 0.21 0.22 0.25 0.29 0.30 0.29 0.30 0.28 0.27 0.25
0.81 1.05 1.14 0.44 0.33 0.62 0.74 0.57 0.58 0.58 0.60 0.62 0.60 0.52 0.47 0.47 0.59 0.74 0.86 0.88 0.79 0.71 0.64 0.54 0.48 0.47 0.46 0.40 0.28 0.22 0.20 0.20 0.19 0.16 0.14 0.15 0.24 0.30 0.29 0.30 0.32 0.32 0.31 0.26
0.86 0.96 0.68 0.33 0.34 0.34 0.34 0.37 0.39 0.39 0.42 0.48 0.54 0.52 0.48 0.50 0.59 0.69 0.78 0.80 0.73 0.61 0.52 0.42 0.38 0.39 0.40 0.33 0.23 0.21 0.22 0.24 0.23 0.19 0.18 0.18 0.23 0.27 0.28 0.29 0.28 0.25 0.25 0.23
0.74 0.73 0.50 0.35 0.27 0.23 0.25 0.30 0.31 0.33 0.36 0.46 0.64 0.68 0.62 0.59 0.66 0.67 0.67 0.60 0.52 0.45 0.38 0.31 0.27 0.25 0.24 0.19 0.18 0.21 0.24 0.23 0.21 0.22 0.24 0.23 0.23 0.18 0.20 0.22 0.20 0.19 0.20 0.22
0.95 0.86 0.65 0.42 0.29 0.27 0.26 0.30 0.37 0.44 0.47 0.51 0.57 0.63 0.64 0.62 0.57 0.51 0.45 0.39 0.35 0.35 0.30 0.23 0.19 0.16 0.13 0.12 0.15 0.21 0.21 0.20 0.19 0.17 0.20 0.25 0.21 0.12 0.10 0.11 0.08 0.11 0.14 0.16
1.24 0.94 0.80 0.62 0.46 0.44 0.42 0.42 0.44 0.43 0.42 0.43 0.41 0.41 0.48 0.49 0.43 0.36 0.32 0.30 0.29 0.26 0.22 0.17 0.14 0.12 0.09 0.08 0.10 0.19 0.22 0.18 0.12 0.10 0.13 0.15 0.18 0.17 0.08 0.03 0.03 0.03 0.05 0.06
0.94 0.73 0.65 0.63 0.56 0.54 0.47 0.37 0.33 0.29 0.25 0.30 0.31 0.29 0.30 0.29 0.26 0.24 0.24 0.22 0.22 0.17 0.12 0.13 0.11 0.08 0.06 0.05 0.06 0.11 0.16 0.14 0.08 0.06 0.08 0.11 0.14 0.22 0.22 0.12 0.04 0.02 0.02 0.04
0.63 0.60 0.59 0.46 0.33 0.26 0.19 0.15 0.17 0.20 0.19 0.19 0.20 0.19 0.18 0.16 0.16 0.16 0.17 0.15 0.14 0.11 0.08 0.08 0.09 0.08 0.05 0.04 0.05 0.07 0.08 0.05 0.05 0.07 0.06 0.07 0.08 0.11 0.16 0.23 0.22 0.17 0.07 0.04
0.38 0.37 0.31 0.18 0.11 0.11 0.10 0.10 0.12 0.15 0.16 0.17 0.14 0.13 0.11 0.12 0.13 0.13 0.12 0.10 0.10 0.09 0.07 0.05 0.06 0.06 0.03 0.02 0.04 0.06 0.06 0.06 0.05 0.04 0.04 0.04 0.05 0.06 0.08 0.13 0.18 0.20 0.17 0.10
0.18 0.16 0.14 0.10 0.08 0.08 0.09 0.09 0.09 0.09 0.11 0.12 0.13 0.11 0.09 0.09 0.08 0.10 0.10 0.08 0.08 0.09 0.07 0.05 0.04 0.03 0.01 0.02 0.04 0.04 0.04 0.03 0.03 0.03 0.03 0.02 0.03 0.04 0.07 0.11 0.13 0.14 0.16 0.15
0.15 0.11 0.09 0.08 0.07 0.07 0.08 0.06 0.05 0.05 0.07 0.08 0.07 0.06 0.05 0.06 0.06 0.08 0.08 0.07 0.06 0.05 0.04 0.03 0.02 0.01 0.01 0.01 0.02 0.02 0.02 0.01 0.01 0.01 0.01 0.01 0.01 0.02 0.04 0.07 0.10 0.12 0.10 0.09
0.12 0.08 0.06 0.06 0.05 0.05 0.05 0.04 0.03 0.03 0.03 0.03 0.02 0.02 0.03 0.04 0.06 0.06 0.05 0.04 0.04 0.03 0.03 0.02 0.01 0.00 0.01 0.01 0.01 0.01 0.01 0.01 0.01 0.01 0.01 0.01 0.01 0.01 0.02 0.03 0.05 0.09 0.10 0.10
0.10 0.09 0.05 0.05 0.04 0.03 0.02 0.02 0.02 0.01 0.01 0.01 0.01 0.02 0.03 0.04 0.04 0.03 0.03 0.03 0.03 0.04 0.03 0.02 0.01 0.01 0.01 0.01 0.01 0.01 0.01 0.01 0.01 0.00 0.00 0.00 0.01 0.02 0.02 0.02 0.03 0.05 0.07 0.11
0.08 0.09 0.05 0.04 0.03 0.02 0.01 0.01 0.01 0.01 0.01 0.01 0.01 0.01 0.02 0.02 0.02 0.02 0.03 0.04 0.04 0.02 0.02 0.01 0.01 0.00 0.00 0.00 0.00 0.00 0.00 0.01 0.01 0.00 0.00 0.01 0.01 0.01 0.01 0.01 0.01 0.03 0.05 0.08
0.07 0.08 0.05 0.02 0.02 0.01 0.01 0.01 0.01 0.01 0.01 0.00 0.00 0.01 0.02 0.02 0.02 0.02 0.03 0.04 0.03 0.01 0.01 0.00 0.00 0.00 0.00 0.00 0.00 0.00 0.00 0.00 0.00 0.00 0.00 0.00 0.00 0.01 0.01 0.01 0.01 0.02 0.03 0.05
0.07 0.09 0.06 0.03 0.02 0.02 0.01 0.01 0.01 0.01 0.01 0.00 0.00 0.01 0.01 0.02 0.01 0.02 0.02 0.02 0.01 0.01 0.00 0.00 0.00 0.00 0.00 0.00 0.00 0.00 0.00 0.00 0.00 0.00 0.00 0.00 0.00 0.00 0.01 0.01 0.01 0.01 0.02 0.03
0.10 0.09 0.06 0.03 0.03 0.02 0.02 0.01 0.01 0.02 0.01 0.01 0.01 0.01 0.01 0.01 0.01 0.01 0.01 0.00 0.00 0.00 0.00 0.00 0.00 0.00 0.00 0.00 0.00 0.00 0.00 0.00 0.00 0.00 0.00 0.00 0.00 0.00 0.00 0.00 0.01 0.01 0.02 0.02
0.13 0.11 0.08 0.04 0.03 0.03 0.03 0.02 0.01 0.01 0.02 0.01 0.01 0.01 0.01 0.01 0.01 0.01 0.00 0.00 0.00 0.00 0.00 0.00 0.00 0.00 0.00 0.00 0.00 0.00 0.00 0.00 0.00 0.00 0.00 0.00 0.00 0.00 0.00 0.00 0.00 0.01 0.01 0.01
0.19 0.14 0.08 0.07 0.07 0.06 0.04 0.02 0.01 0.01 0.01 0.01 0.01 0.01 0.01 0.00 0.00 0.00 0.00 0.00 0.00 0.00 0.00 0.00 0.00 0.00 0.00 0.00 0.00 0.00 0.00 0.00 0.00 0.00 0.00 0.00 0.00 0.00 0.00 0.00 0.00 0.00 0.00 0.00
0.25 0.21 0.15 0.11 0.08 0.05 0.04 0.03 0.02 0.02 0.02 0.02 0.02 0.01 0.01 0.01 0.00 0.00 0.00 0.00 0.01 0.00 0.00 0.00 0.00 0.00 0.00 0.00 0.00 0.00 0.00 0.00 0.00 0.00 0.00 0.00 0.00 0.00 0.00 0.00 0.00 0.00 0.00 0.00
0.31 0.27 0.21 0.13 0.07 0.04 0.06 0.07 0.05 0.03 0.02 0.02 0.03 0.02 0.01 0.01 0.00 0.00 0.00 0.00 0.00 0.01 0.01 0.00 0.00 0.00 0.00 0.00 0.00 0.00 0.00 0.00 0.00 0.00 0.00 0.00 0.00 0.00 0.00 0.00 0.00 0.00 0.00 0.00